Дата Пункты Температура Давл., мм. Влажн., % Ветер Погодные явления
Воздуха Воды Направл. Скорость
10.12.14 10:00 Одесса 2.0 3.0 759 100 Пн-З 2 23 часа
10.12.14 07:00 Одесса 2.0 3.0 759 100 Пн-З 3 20 часов
10.12.14 04:00 Одесса 3.0 2.0 758 98 Пн 4 17 часов
10.12.14 01:00 Одесса 2.0 2.0 759 99 Пн 4 14 часов
10.12.14 10:00 Одесса 2.0 2.0 759 98 Пн 5 11 часов
10.12.14 07:00 Одесса 2.0 2.0 759 97 Пн 1 08 часов
10.12.14 04:00 Одесса 2.0 2.0 759 96 Пн 3 05 часов
10.12.14 01:00 Одесса 2.0 2.0 759 94 Пн 5 02 часа
09.12.14 10:00 Одесса 2.0 2.0 759 97 Пн 5 23 часа
09.12.14 07:00 Одесса 3.0 2.0 759 98 Пн 6 20 часов
09.12.14 04:00 Одесса 3.0 2.0 759 99 Пн 3 17 часов
09.12.14 01:00 Одесса 3.0 2.0 758 100 Пн 7 14 часов
09.12.14 10:00 Одесса 2.0 2.0 759 100 Пн 6 11 часов
09.12.14 07:00 Одесса 2.0 2.0 759 98 Пн 6 08 часов
09.12.14 04:00 Одесса 1.0 2.0 759 100 Пн 4 05 часов
09.12.14 01:00 Одесса 1.0 2.0 760 100 Пн 4 02 часа
08.12.14 10:00 Одесса 1.0 2.0 760 98 Пн 4 23 часа
08.12.14 07:00 Одесса 1.0 2.0 760 100 Пн 3 20 часов
08.12.14 04:00 Одесса 1.0 2.0 759 100 Пн 3 17 часов
08.12.14 01:00 Одесса 1.0 2.0 759 98 Пн 3 14 часов
Количество строк
441 442 443 444 445 446 447 448 449 450
Page 448 of 481